Regional Weather Roundup
Issued by NWS

Home | Current Version | Previous Version | Text Only | Print | Product List | Glossary On
Versions: 1 2 3 4 5 6 7 8 9 10 11 12 13 14 15 16 17 18 19 20 21 22 23 24 25 26 27 28 29 30 31 32 33 34 35 36 37 38 39 40 41 42 43 44 45 46 47 48 49 50
000
ASUS45 KPSR 260310
RWRAZ

ARIZONA REGIONAL HOURLY WEATHER ROUNDUP
NATIONAL WEATHER SERVICE PHOENIX AZ
800 PM MST SAT APR 25 2015

NOTE: FAIR INDICATES FEW OR NO CLOUDS BELOW 12,000 FEET WITH NO
SIGNIFICANT WEATHER AND/OR OBSTRUCTIONS TO VISIBILITY.

AZZ001>003-036-260400-
NORTHWEST ARIZONA

CITY           SKY/WX    TMP DP  RH WIND       PRES   REMARKS
BULLHEAD CITY  MOCLDY    63  45  51 CALM      29.68S
KINGMAN        MOCLDY    49  44  83 S9        29.73S
$$

AZZ004>008-015-016-018-260400-
NORTH CENTRAL ARIZONA

CITY           SKY/WX    TMP DP  RH WIND       PRES   REMARKS
GRAND CANYON   LGT RAIN  37  36  96 S3        29.80F FOG
WILLIAMS       LGT RAIN  39  37  93 SW8       29.87S WCI  34
PRESCOTT       LGT RAIN  47  40  76 SW3       29.80R
FLAGSTAFF      LGT RAIN  35  35 100 CALM      29.82S
PAYSON         CLOUDY    48  37  66 S8G18     29.86R
PAGE           CLOUDY    50  40  68 N9        29.74S
$$

AZZ009>014-017-260400-
NORTHEAST ARIZONA

CITY           SKY/WX    TMP DP  RH WIND       PRES   REMARKS
WINSLOW        CLOUDY    49  40  71 SW5       29.81R
SAINT JOHNS    CLOUDY    55  30  38 SW28G39   29.82R
WINDOW ROCK    MOCLDY    44  35  70 CALM      29.84R
SHOW LOW       LGT RAIN  41  36  81 SW13G24   29.87R
$$

AZZ023-260400-
GREATER PHOENIX AREA

CITY           SKY/WX    TMP DP  RH WIND       PRES   REMARKS
PHOENIX        CLOUDY    73  39  29 W22       29.72R
BUCKEYE        CLOUDY    68  39  34 W16G23    29.75R
DEER VALLEY    CLOUDY    68  36  30 SW23G29   29.73R
SCOTTSDALE     CLOUDY    69  38  32 W14G24    29.75R
MESA-GATEWAY   MOCLDY    70  45  40 W5        29.75S
CHANDLER       CLOUDY    72  39  30 SW17G29   29.73S
$$

AZZ027-028-260400-
SOUTHWEST MARICOPA COUNTY AND PINAL COUNTY

CITY           SKY/WX    TMP DP  RH WIND       PRES   REMARKS
CASA GRANDE    CLOUDY    70  39  32 W9        29.73S
$$

AZZ503-504-507>509-260400-
SOUTHEAST ARIZONA

CITY           SKY/WX    TMP DP  RH WIND       PRES   REMARKS
TUCSON         CLOUDY    73  35  25 W14       29.80S
RYAN FIELD       N/A     73  39  29 SW15G23   29.80R
NOGALES        MOCLDY    65  37  35 SW22G30   29.86R
DOUGLAS        CLEAR     65  25  22 SW14      29.86R
SAFFORD        CLOUDY    71  29  21 NW15      29.74R
$$

AZZ020-021-025-026-031-260400-
SOUTHWEST ARIZONA

CITY           SKY/WX    TMP DP  RH WIND       PRES   REMARKS
YUMA           MOCLDY    68  46  45 W18       29.78S
$$

CAZ031-033-041-043-047-048-061-260400-
SOUTHERN CALIFORNIA

CITY           SKY/WX    TMP DP  RH WIND       PRES   REMARKS
DOWNTOWN L.A.  PTCLDY    60  51  72 W6        29.86S
L.A. AIRPORT   PTCLDY    58  52  80 W24       29.87S
SAN DIEGO      RAIN      63  57  81 W15G22    29.94S
BURBANK        PTCLDY    60  55  83 CALM      29.86S
ONTARIO        MOCLDY    57  52  83 W14       29.88R
RIVERSIDE      CLOUDY    58  52  80 W18       29.87R
PALM SPRINGS   CLOUDY    67  49  52 W8        29.79R
EL CENTRO NAS  CLOUDY    67  48  50 SW12      29.81R
IMPERIAL       PTCLDY    66  49  54 W21G35    29.77S
BLYTHE         LGT RAIN  69  46  43 W21G36    29.71F
NEEDLES        CLOUDY    66  39  37 NW16G33   29.70R
$$

NVZ020-UTZ003-260400-
SOUTHERN NEVADA-UTAH

CITY           SKY/WX    TMP DP  RH WIND       PRES   REMARKS
LAS VEGAS      CLOUDY    54  46  74 S7        29.70S
SALT LAKE CITY LGT RAIN  46  42  86 NW8       29.72R
$$

NMZ009-TXZ055-260400-
NEW MEXICO-WEST TEXAS

CITY           SKY/WX    TMP DP  RH WIND       PRES   REMARKS
ALBUQUERQUE    CLOUDY    63  29  27 W9        29.78R
EL PASO        PTCLDY    73  18  12 W13G26    29.79R
$$


........................KEY........................
SKY/WX - SKY CONDITION/WEATHER
TMP    - TEMPERATURE IN FAHRENHEIT
DP     - DEW POINT IN FAHRENHEIT
RH     - RELATIVE HUMIDITY IN PERCENT
WIND   - DIRECTION AND SPEED IN MILES PER HOUR (MPH)
VRB    - VARIABLE WIND DIRECTION
PRES   - MEAN SEA LEVEL PRESSURE IN INCHES OF MERCURY
         F - FALLING PRESSURE   R - RISING PRESSURE
         S - STEADY PRESSURE
VSB    - VISIBILITY IN MILES
HX     - HEAT INDEX IN FAHRENHEIT
WCI    - WIND CHILL INDEX IN FAHRENHEIT
TC     - TEMPERATURE IN CELSIUS WHICH IS ALSO KNOWN AS
         TEMPERATURE IN CENTIGRADE
AFB    - AIR FORCE BASE
         LUKE AFB IS LUKE AIR FORCE BASE
         DAVIS-MONTHAN IS DAVIS-MONTHAN AIR FORCE BASE
NAS    - NAVAL AIR STATION
         EL CENTRO NAS IS EL CENTRO NAVAL AIR STATION
N/A    - NOT AVAILABLE




USA.gov is the U.S. government's official web portal to all federal, state and local government web resources and services.